Location:  
MeteoStar


Sort by weather type Sort by elevation Sort by visibility Sort from west to east north Sort from north to south Alphabetically Sort from strongest wind speed Sort from lowest to highest pressure Sort from highest to lowest dew point temperature Sort coolest temperatures to warmest Sort warm temperatures to coolest
 Metric

Current Observations for United Kingdom sorted by weather type

Aboyne10:00ZLight Showers45 37251034.0WNW 8 41459
Scatsa / Shetland Island09:20ZLight Showers45 39301027.2WNW 16 3872
Guernsey Airport09:20ZLight Showers43 39151029.3NE 13 36334
Kinloss09:16ZShowers nearby46 39201034.1W 10 4122
Sumburgh Cape 09:20ZShowers nearby46 39181028.1W 17 3916
Kirkwall Airport09:20ZShowers nearby45 41181031.2WNW 18 3768
Jersey Airport09:20ZShowers nearby43 39121028.3ENE 10 37275
Lerwick10:00ZCloudy45 37181027.1NW 17 Gusting to 25 38269
Topcliffe Royal Air Force Base 09:50ZCloudy45 41201035.2N 7 4191
Leconfield09:50ZCloudy45 37181035.1ENE 10 4019
Boulmer09:50ZCloudy48 37251035.2WNW 5 4675
Edinburgh Airport09:20ZCloudy45 37301036.2WNW 5 42134
Aberdeen / Dyce09:20ZCloudy45 37301034.3WNW 8 41213
Manchester Airport09:20ZCloudy45 34251035.3NE 10 40226
Belfast / Harbour09:20ZCloudy45 37251037.1NNW 5 4216
Camborne10:00ZMostly Cloudy45 31301031.9ENE 13 39285
Fairford Royal Air Force Base09:36ZMostly Cloudy45 34171033.4NE 14 39285
Stansted Airport09:20ZMostly Cloudy46 37201033.4ENE 13 40347
Lossiemouth09:50ZMostly Cloudy46 39201034.1W 17 3942
Stornoway09:20ZMostly Cloudy46 41301035.1W 9 4129
Benbecula09:20ZMostly Cloudy46 39301037.1NW 13 4019
Glasgow Airport09:20ZMostly Cloudy46 36301036.1WNW 6 4326
Inverness / Dalcross09:20ZMostly Cloudy46 41301035.1SW 12 4029
Shawbury09:20ZMostly Cloudy43 36201035.3NE 7 39249
East Midlands09:20ZMostly Cloudy43 32301034.4NNE 10 37308
Isle Of Man / Ronaldsway Airport09:20ZMostly Cloudy48 37301036.1N 3 4855
Farnborough09:20ZMostly Cloudy45 36201032.3NE 11 39213
London City Airport09:20ZMostly Cloudy46 36121033.1ENE 12 4016
Alderney / Channel Island09:20ZMostly Cloudy45 39251029.3NE 20 37232
Luton Airport 09:20ZMostly Cloudy43 36121033.5NE 12 37524
Liverpool Airport 09:20ZMostly Cloudy46 36121036.2ENE 10 4185
Bristol / Lulsgate 09:20ZMostly Cloudy41 34121033.5NE 12 34620
Cardiff-Wales Airport09:20ZMostly Cloudy45 34121033.2ENE 15 38219
Yeovilton09:23ZMostly Cloudy43 36121032.2NE 15 3675
Culdrose09:24ZMostly Cloudy45 36121031.3ENE 18 Gusting to 31 37255
Birmingham / Airport09:20ZMostly Cloudy43 34251034.4NE 10 37324
Marham09:20ZPartly Cloudy45 32121034.2NNE 11 3975
Coningsby Royal Air Force Base09:50ZPartly Cloudy46 34201034.1NE 8 4222
Odiham09:50ZPartly Cloudy45 36151032.4NE 12 39403
Brize Norton09:20ZPartly Cloudy45 34201033.3ENE 16 38288
Exeter Airport09:20ZPartly Cloudy45 36201032.2NE 18 3798
Norwich Weather Centre09:20ZPartly Cloudy46 36201034.1NE 9 4145
Tiree09:20ZPartly Cloudy46 41451037.1NNW 8 4239
Prestwick Airport09:20ZPartly Cloudy46 37301037.2WNW 4 4465
Wick09:20ZPartly Cloudy46 41101032.2WNW 16 39127
Tees-Side09:20ZPartly Cloudy43 39301036.2N 8 38121
Newcastle 09:20ZPartly Cloudy46 39301035.3N 2 46265
Hawarden09:20ZPartly Cloudy46 36301036.1ENE 9 4132
Leeds And Bradford09:20ZPartly Cloudy41 36191035.6NNE 7 36682
Humberside09:20ZPartly Cloudy46 34191035.2NNE 10 41101
Blackpool Airport09:20ZPartly Cloudy46 37191036.1ENE 8 4232
Lydd Airport 09:20ZPartly CloudyN/A N/A19N 9
Southend-On-Sea 09:20ZPartly Cloudy46 39191032.2ENE 12 4049
London / Heathrow Airport09:20ZPartly Cloudy45 34191033.2ENE 11 3978
London / Gatwick Airport09:20ZPartly Cloudy45 36121032.3NE 11 39203
Biggin Hill 09:20ZPartly Cloudy43 36121032.6ENE 14 36600
Shoreham Airport09:20ZPartly Cloudy45 37121031.1NNE 11 396
Bournemouth Airport09:20ZPartly Cloudy46 37251031.1NE 11 4136
Boscombe Down09:21ZPartly Cloudy45 36201032.4NE 15 38406
Staverton Private 09:20ZPartly Cloudy45 36251034.2NE 10 4095
Belfast / Aldergrove Airport09:20ZPartly Cloudy43 41251037.4N 3 43265
Lough Fea10:00ZClear41 38251038NW 5 38738
Castlederg10:00ZClear45 38251038.0NNW 5 42167
Altnaharra10:00ZClear44 39251034SW 5 41265
Aultbea10:00ZClear45 40181035.8W 8 4136
Waddington09:21ZClear45 34201034.3NNE 10 40223
Northolt09:20ZClear46 34251032.2E 15 40124
Mildenhall Royal Air Force Base09:55ZClear46 32171033.1ENE 8 4232
Lakenheath Royal Air Force Base09:56ZClear46 32251033.3NNE 9 4132
Cranfield09:20ZClear43 36201033.4NE 13 36364
Cambridge09:20ZClear46 36201033.1NE 10 4149
Leuchars09:50ZClear48 34201035.1WNW 8 4439
Dundee / Riverside09:20ZClear48 37301035.1W 7 4513
Valley09:50ZClear48 36201035.1ENE 13 433
Scilly; Saint MaryS09:20ZClear46 34201031.2ENE 21 38101